Squamish, British Columbia

2:49 PM PDT on March 24, 2017 (GMT -0700)
Squamish

Weather History for CWSK - March, 2013

Change the Weather History Date:

Sunday, March 3, 2013

  Actual Average Record
Temperature  
Mean Temperature 40 °F -  
Max Temperature 50 °F - - ()
Min Temperature 29 °F - - ()
Degree Days  
Heating Degree Days 25    
Moisture  
Dew Point 32 °F    
Average Humidity 85    
Maximum Humidity 100    
Minimum Humidity 37    
Precipitation  
Precipitation 0.00 in - - ()
Sea Level Pressure  
Sea Level Pressure 30.22 in    
Wind  
Wind Speed 2 mph ()    
Max Wind Speed 6 mph    
Max Gust Speed -    
T = Trace of Precipitation, MM = Missing Value Source: Averaged Metar Reports

Daily Weather History Graph

Daily Weather History Graph

Search for Another Location

Airport or City:

Trip Planner

Search our weather history database for the weather conditions in past years. The results will help you decide how hot, cold, wet, or windy it might be!

Date:

Astronomy

Mar. 03, 2013 Rise Set
Actual Time 6:50 AM PST 5:59 PM PST
Civil Twilight 6:18 AM PST 6:31 PM PST
Nautical Twilight 5:41 AM PST 7:08 PM PST
Astronomical Twilight 5:04 AM PST 7:46 PM PST
Moon 12:20 AM PST (3/3) 9:32 AM PST (3/3)
Length of Visible Light 12h 12m
Length of Day
11h 08m
Waning Gibbous, 62% of the Moon is Illuminated
Mar 3
Waning Gibbous
Mar 4
Last Quarter
Mar 11
New
Mar 19
First Quarter
Mar 27
Full

Hourly Weather History & Observations

Time (PST) Temp. Windchill Dew Point Humidity Pressure Visibility Wind Dir Wind Speed Gust Speed Precip Events Conditions
12:00 AM 35.4 °F - 35.4 °F 100% 30.10 in - ENE 2.3 mph - N/A   Unknown
1:00 AM 33.6 °F - 33.6 °F 100% 30.12 in - NNW 1.2 mph - N/A   Unknown
2:00 AM 31.3 °F - 31.3 °F 100% 30.14 in - North 1.2 mph - N/A   Unknown
3:00 AM 30.9 °F - 30.9 °F 100% 30.15 in - North 1.2 mph - N/A   Unknown
4:00 AM 32 °F - 32 °F 100% 30.16 in - North 3.5 mph - -  
4:00 AM 31.8 °F 28.5 °F 31.8 °F 100% 30.16 in - North 3.5 mph - N/A   Unknown
5:00 AM 32.0 °F - 32.0 °F 100% 30.18 in - NE 2.3 mph - N/A   Unknown
6:00 AM 31.6 °F 28.3 °F 31.6 °F 100% 30.21 in - NE 3.5 mph - N/A   Unknown
7:00 AM 31 °F - 31 °F 97% 30.21 in - North 2.3 mph - -  
7:00 AM 30.6 °F - 30.6 °F 100% 30.21 in - North 2.3 mph - N/A   Unknown
9:00 AM 35.1 °F - 35.1 °F 100% 30.23 in - NNW 1.2 mph - N/A   Unknown
10:00 AM 38 °F - 36 °F 89% 30.23 in - NNW 2.3 mph - -  
11:00 AM 42.4 °F 40.7 °F 36.3 °F 79% 30.22 in - West 3.5 mph - N/A   Unknown
12:00 PM 45.7 °F 44.4 °F 35.6 °F 68% 30.22 in - West 3.5 mph - N/A   Unknown
1:00 PM 48 °F - 30 °F 37% 30.22 in - SSW 1.2 mph - -  
1:00 PM 47.8 °F - 29.8 °F 50% 30.22 in - SSW 1.2 mph - N/A   Unknown
2:00 PM 48.6 °F - 31.6 °F 52% 30.21 in - SSE 5.8 mph - N/A   Unknown
3:00 PM 48.4 °F - 27.1 °F 44% 30.22 in - SSE 5.8 mph - N/A   Unknown
4:00 PM 47 °F - 32 °F 44% 30.22 in - South 5.8 mph - -  
4:00 PM 47.5 °F - 31.8 °F 55% 30.22 in - South 5.8 mph - N/A   Unknown
5:00 PM 45.0 °F - 35.2 °F 69% 30.23 in - South 2.3 mph - N/A   Unknown
6:00 PM 38.8 °F - 36.5 °F 91% 30.24 in - NNE 1.2 mph - N/A   Unknown
7:00 PM 35 °F - 34 °F 96% 30.27 in - NE 1.2 mph - -  
7:00 PM 35.4 °F - 34.3 °F 96% 30.27 in - NE 1.2 mph - N/A   Unknown
8:00 PM 33.3 °F - 31.3 °F 92% 30.29 in - Calm Calm - N/A   Unknown
9:00 PM 32.0 °F - 31.6 °F 99% 30.31 in - NNE 2.3 mph - N/A   Unknown
10:00 PM 31 °F - 31 °F 97% 30.32 in - Calm Calm - -  
10:00 PM 30.7 °F - 30.6 °F 99% 30.32 in - Calm Calm - N/A   Unknown
11:00 PM 29.8 °F - 29.8 °F 100% 30.33 in - North 1.2 mph - N/A   Unknown